User: anonymous   Login
Location: Granada
(37.1830°N, 3.6000°W)
Time: 13:38:06
(UTC+02:00)
Language:

Iridium 70 - Orbit

View from above orbital plane
View from above orbital plane
View from above satellite
View from above satellite

Ground track
Ground track

The orbit data is extracted from the following two-line orbital elements,

1 25342U 98032A   15110.48891696  .00000627  00000-0  21691-3 0  9994
2 25342 086.4022 193.8726 0002426 095.7297 340.0300 14.34217231886054
Epoch (UTC): 20 April 2015 11:44:02
Eccentricity: 0.0002426
inclination: 86.4022°
perigee height: 776 km
apogee height: 779 km
right ascension of ascending node: 193.8726°
argument of perigee: 95.7297°
revolutions per day: 14.34217231
mean anomaly at epoch: 340.0300°
orbit number at epoch: 88605

The dashed part of the orbit path shows where the satellite is in the earth's shadow,  

DLR